Vertical_Velocity
8 -3 0 -6 -9 -5 -1 -0 4 13 2 -6 2 -11 1 3 10 -1 2 4 1 1 -0 2 6 -3 0 1 -1 -0 2 0 1 0 -0 -1 0 -1 1 -1 -1 -2 -2
1 2 -2 -4 -2 2 7 -7 1 -3 -1 -0 -7 -6 1 21 22 10 0 3 -1 1 0 3 3 -2 2 1 2 -0 -0 1 1 1 -0 -1 -1 -1 -1 -1 -2 -3 -3
-3 2 0 1 4 -1 -0 1 4 1 -4 26 -6 -13 20 14 -3 -15 -7 4 4 2 3 2 -1 -0 1 1 -2 -0 1 1 2 -0 0 -1 -2 1 -1 -1 -6 -0 -1
-3 -3 -1 -3 -4 -0 3 -5 -5 6 2 20 14 2 15 8 7 -1 1 4 4 2 0 1 1 -2 1 -0 0 -1 2 1 2 2 0 -1 -0 1 -2 -4 -3 0 0
2 -4 1 3 -3 -2 6 5 -6 -6 10 14 33 0 9 12 5 10 0 0 2 -2 2 3 -1 -1 -0 -0 2 1 1 1 2 0 0 -1 -2 -1 -0 -3 -1 -1 -1
1 -2 5 2 -2 4 5 -1 -3 6 -6 11 -2 1 -8 8 -3 1 -1 -1 3 2 2 -2 -2 1 -1 2 2 -5 -3 2 2 2 1 -7 -0 -5 -2 -0 2 -3 -2
1 5 1 -3 -8 1 2 4 -5 11 6 15 46 14 14 2 5 12 4 5 3 -1 2 1 -2 4 3 3 -3 -1 3 1 -2 4 -4 -2 -0 -2 1 3 3 2 -1
-3 3 4 -3 2 2 5 -1 11 -1 -7 4 56 19 22 11 5 0 5 2 2 2 0 3 -5 3 2 -3 -0 1 -1 4 -4 3 -4 3 -1 -4 2 -1 2 0 -2
1 5 -2 7 -8 -3 4 9 6 2 0 4 39 14 6 8 5 -1 -1 -3 -2 2 -2 -1 1 1 0 -0 -1 1 -1 5 -4 0 2 0 -0 5 1 2 0 -1 -0
2 13 10 -3 5 17 -0 0 12 0 0 17 11 12 12 11 4 7 6 10 2 -9 3 -1 0 0 1 -0 -2 1 1 1 -4 3 2 15 -1 -2 0 1 -0 5 4
12 6 9 -7 -3 15 14 7 4 -7 1 2 2 -2 14 14 18 5 8 16 4 6 6 2 4 3 3 1 1 -0 -2 8 3 7 8 10 -3 -4 -0 1 -1 1 -1
3 2 -11 3 7 1 -2 -2 1 5 -5 8 -4 6 9 11 13 15 8 5 -1 -2 3 0 -3 -2 -1 2 2 1 -3 6 0 12 18 18 1 3 1 -1 -0 1 4
4 47 2 -2 3 -5 2 -1 -3 -9 4 -3 8 14 15 14 7 19 14 13 14 15 2 5 1 2 2 3 1 -3 2 6 11 11 4 -1 -4 1 3 2 1 1 1
-2 4 -1 6 9 7 4 11 -10 11 -6 15 11 17 7 33 -0 11 6 10 8 7 2 2 11 5 3 2 0 1 3 12 7 1 2 -3 4 4 4 0 -2 2 -1
22 48 23 -11 -0 2 3 3 -6 1 18 4 4 -2 0 -4 -7 -5 3 3 -0 2 7 23 24 7 3 15 27 1 16 16 11 -8 0 -2 -2 -3 -2 -6 -0 -2 0
28 -3 -9 -2 -5 -7 -12 -23 -5 -9 -25 -10 -9 -4 3 -4 -2 -7 -5 -14 -8 -3 0 -6 -2 -7 -1 7 2 -6 -6 -6 2 -4 -3 -4 -1 -2 -3 -1 3 -0 -1
20 -9 -8 -19 -15 0 2 16 8 4 4 4 -8 -7 -2 -5 -4 -5 -4 -0 2 -2 2 1 -1 5 5 8 5 -0 -4 -1 -4 -1 -1 -3 -4 -1 -1 -2 -3 0 0
3 4 18 18 13 15 20 4 -4 -4 -3 -1 -1 4 7 -0 0 1 -0 4 0 -1 -1 0 3 -1 27 0 3 0 4 1 5 1 -1 -3 -1 -1 5 2 0 1 5
-4 6 1 -5 -5 -8 -16 -11 -7 -4 -3 -5 -5 -6 -6 -5 -1 -3 3 1 -3 -1 -2 -3 -1 5 10 3 6 3 2 1 4 5 6 12 7 6 7 -1 0 2 4
-2 -14 -1 -11 -7 -5 -5 -3 -1 3 2 0 -0 1 -2 0 -2 -0 -1 -6 -9 1 2 11 8 2 12 19 -0 37 -2 -0 -2 -2 -1 1 -3 -0 1 0 3 -2 6
-2 2 -2 8 6 4 5 -3 4 3 -1 0 2 -2 -0 1 1 1 4 6 8 4 -2 -1 -6 -9 -5 -6 -1 1 -0 -5 3 4 -4 2 -1 5 -1 2 -2 -6 1
3 -3 -8 -0 -10 -5 2 8 5 -4 -4 -3 -2 1 2 3 4 3 2 2 3 0 6 5 3 4 8 1 5 6 3 9 3 2 -4 3 -3 -1 4 2 1 -1 1
-10 -16 -17 -14 -10 -22 -16 -12 -4 -8 2 2 2 -1 -2 -4 -2 4 6 3 -1 4 -0 2 -0 3 3 -3 3 -1 2 4 -3 -1 -6 4 -1 0 -1 -3 -2 5 2
-1 -1 -6 -8 -3 -3 3 4 4 -5 -11 -16 -6 -2 -3 -7 -10 -9 -5 -0 4 3 3 1 10 -2 4 -2 -2 3 -3 -2 5 4 -4 -1 4 3 3 -3 -2 3 -6
-4 -8 -2 16 24 19 -1 4 4 17 5 2 3 0 3 -1 -4 -7 -14 -9 -14 -4 -0 1 9 1 -0 -1 2 2 -3 4 8 -7 -2 -0 9 7 3 0 2 5 3
-0 0 -4 -3 -3 -5 -0 -0 -1 -8 -6 -4 -5 -4 1 -2 -4 -5 -3 1 2 -3 -3 -6 -3 3 3 5 10 10 8 5 4 3 -1 6 2 3 4 3 -5 -1 -2
Height
5588 5591 5600 5611 5622 5636 5657 5675 5694 5713 5719 5726 5737 5742 5751 5758 5775 5785 5796 5801 5809 5816 5822 5828 5833 5835 5838 5841 5843 5845 5847 5849 5851 5853 5853 5853 5854 5854 5853 5854 5853 5853 5852
5567 5575 5583 5592 5603 5621 5638 5657 5680 5699 5711 5719 5728 5743 5755 5757 5768 5780 5788 5796 5803 5809 5816 5821 5825 5828 5831 5835 5837 5839 5839 5843 5846 5847 5847 5849 5849 5848 5848 5849 5848 5848 5847
5561 5569 5576 5583 5593 5605 5623 5641 5667 5688 5703 5710 5721 5734 5742 5749 5760 5768 5774 5786 5795 5801 5807 5812 5817 5820 5824 5828 5830 5832 5834 5839 5840 5840 5842 5842 5843 5843 5843 5843 5844 5844 5843
5559 5563 5569 5576 5583 5596 5612 5632 5655 5676 5694 5698 5713 5725 5738 5746 5756 5763 5769 5779 5786 5793 5799 5804 5809 5813 5817 5820 5824 5826 5829 5832 5834 5834 5835 5835 5836 5838 5838 5837 5839 5840 5838
5556 5560 5564 5572 5578 5591 5608 5629 5647 5667 5680 5694 5710 5721 5730 5741 5748 5753 5759 5769 5778 5785 5792 5798 5801 5806 5810 5813 5817 5819 5822 5824 5826 5827 5828 5828 5830 5831 5833 5832 5832 5833 5832
5551 5555 5561 5570 5576 5591 5605 5622 5639 5657 5671 5689 5703 5713 5724 5730 5737 5745 5752 5761 5770 5777 5783 5788 5793 5798 5802 5806 5808 5810 5813 5816 5818 5819 5821 5821 5823 5824 5826 5826 5827 5826 5826
5550 5556 5563 5572 5581 5593 5606 5625 5642 5659 5673 5684 5696 5706 5716 5723 5731 5739 5745 5755 5762 5767 5773 5778 5783 5790 5794 5797 5799 5801 5804 5807 5808 5811 5812 5814 5816 5817 5820 5821 5820 5821 5818
5554 5559 5565 5575 5584 5597 5609 5624 5641 5655 5663 5674 5686 5697 5705 5713 5721 5727 5735 5744 5752 5758 5764 5769 5775 5781 5785 5787 5790 5792 5795 5797 5798 5800 5803 5807 5807 5808 5811 5812 5813 5813 5812
5554 5558 5566 5578 5592 5606 5616 5627 5639 5648 5661 5670 5683 5694 5703 5710 5715 5720 5726 5733 5741 5747 5753 5760 5767 5772 5775 5778 5780 5783 5785 5787 5787 5791 5796 5798 5799 5800 5802 5804 5805 5806 5805
5556 5562 5573 5587 5599 5611 5623 5632 5645 5652 5661 5672 5682 5689 5697 5703 5710 5715 5720 5726 5732 5737 5743 5750 5757 5763 5766 5769 5772 5774 5777 5778 5779 5783 5788 5791 5790 5793 5796 5798 5798 5799 5797
5567 5574 5585 5597 5610 5621 5628 5637 5645 5652 5663 5670 5676 5684 5689 5699 5705 5711 5720 5725 5729 5732 5736 5741 5749 5755 5758 5761 5764 5766 5767 5769 5773 5776 5779 5781 5783 5786 5787 5788 5789 5790 5789
5575 5583 5596 5606 5613 5622 5632 5640 5647 5656 5665 5671 5675 5680 5689 5696 5702 5708 5715 5720 5723 5727 5730 5734 5739 5743 5749 5752 5754 5756 5758 5761 5766 5769 5770 5772 5773 5775 5777 5778 5778 5778 5777
5582 5589 5604 5611 5620 5629 5638 5644 5651 5664 5669 5670 5673 5677 5686 5693 5701 5705 5710 5714 5713 5720 5724 5728 5731 5735 5739 5741 5744 5746 5750 5753 5755 5759 5761 5761 5763 5764 5766 5768 5769 5768 5767
5597 5604 5612 5620 5628 5635 5641 5647 5657 5664 5667 5669 5670 5676 5682 5690 5691 5699 5702 5708 5712 5716 5719 5722 5724 5727 5730 5731 5734 5737 5740 5743 5745 5744 5748 5752 5752 5755 5757 5758 5757 5757 5756
5603 5615 5623 5626 5631 5637 5645 5652 5657 5661 5666 5669 5672 5674 5679 5684 5689 5695 5698 5703 5708 5712 5712 5718 5719 5721 5723 5723 5725 5726 5733 5733 5735 5736 5739 5741 5742 5743 5745 5746 5744 5744 5744
5611 5621 5626 5630 5637 5642 5647 5652 5657 5660 5665 5670 5672 5674 5678 5681 5685 5689 5693 5698 5701 5704 5706 5709 5711 5711 5712 5715 5716 5718 5720 5723 5726 5726 5727 5728 5730 5732 5734 5734 5734 5733 5733
5622 5627 5632 5638 5643 5644 5648 5651 5655 5660 5664 5667 5671 5674 5677 5681 5684 5686 5688 5690 5692 5695 5697 5699 5701 5703 5705 5707 5709 5711 5713 5713 5714 5716 5717 5718 5719 5721 5721 5722 5722 5721 5720
5630 5634 5637 5640 5644 5648 5650 5654 5658 5662 5664 5668 5671 5673 5674 5677 5680 5683 5685 5687 5689 5690 5692 5693 5694 5695 5694 5696 5698 5699 5701 5702 5702 5704 5705 5706 5708 5708 5707 5709 5708 5707 5706
5636 5639 5641 5644 5646 5649 5653 5657 5659 5661 5663 5665 5666 5668 5671 5674 5675 5676 5678 5679 5681 5682 5683 5687 5688 5688 5685 5687 5688 5688 5689 5691 5691 5691 5692 5693 5693 5693 5694 5695 5694 5694 5694
5638 5640 5641 5645 5648 5650 5652 5653 5655 5656 5657 5658 5660 5662 5663 5665 5666 5668 5669 5669 5669 5670 5672 5673 5674 5677 5676 5678 5677 5676 5675 5678 5678 5680 5680 5679 5680 5680 5680 5679 5679 5678 5678
5638 5639 5642 5644 5644 5646 5648 5650 5650 5650 5651 5652 5653 5654 5655 5655 5656 5655 5655 5656 5658 5658 5660 5662 5665 5665 5662 5663 5663 5663 5664 5664 5664 5664 5664 5664 5663 5664 5664 5663 5663 5663 5663
5643 5642 5643 5643 5644 5644 5645 5645 5645 5646 5646 5646 5646 5646 5645 5645 5644 5642 5641 5641 5642 5644 5645 5645 5646 5646 5646 5646 5646 5646 5646 5646 5647 5648 5647 5648 5647 5648 5647 5647 5647 5647 5647
5644 5643 5645 5646 5647 5647 5644 5643 5642 5641 5639 5637 5635 5635 5634 5632 5631 5630 5629 5628 5626 5626 5627 5628 5629 5629 5630 5630 5629 5631 5630 5631 5631 5630 5630 5631 5632 5631 5631 5632 5631 5630 5631
5644 5644 5646 5645 5642 5641 5640 5639 5638 5637 5633 5629 5628 5625 5624 5622 5621 5620 5617 5614 5612 5611 5610 5610 5609 5610 5611 5611 5611 5611 5612 5613 5613 5613 5613 5614 5615 5616 5616 5616 5616 5616 5616
5647 5646 5643 5640 5638 5637 5636 5630 5623 5621 5620 5617 5614 5614 5611 5607 5606 5605 5603 5600 5599 5598 5595 5593 5592 5592 5593 5592 5593 5593 5594 5595 5595 5595 5597 5599 5600 5599 5599 5600 5602 5601 5601
5647 5647 5647 5643 5641 5637 5629 5624 5619 5616 5611 5608 5607 5602 5597 5594 5593 5590 5587 5584 5581 5580 5578 5577 5576 5575 5575 5576 5576 5576 5576 5577 5578 5577 5582 5583 5583 5584 5584 5583 5585 5586 5586